Weather reports worldwide

Advertisment
Elpersbüttel, Germany (10130): temperature & dewpoint: 24.09.2020 23:00:00 - 30.09.2020 23:00:00 (CEST)Elpersbüttel, Germany (10130): temperature 5cm & temperature -5cm: 24.09.2020 23:00:00 - 30.09.2020 23:00:00 (CEST)Elpersbüttel, Germany (10130): temperature -20cm & temperature -100cm: 24.09.2020 23:00:00 - 30.09.2020 23:00:00 (CEST)Elpersbüttel, Germany (10130): wind speed & gusts: 24.09.2020 23:00:00 - 30.09.2020 23:00:00 (CEST)Elpersbüttel, Germany (10130): wind direction: 24.09.2020 23:00:00 - 30.09.2020 23:00:00 (CEST)Elpersbüttel, Germany (10130): reduced air pressure: 24.09.2020 23:00:00 - 30.09.2020 23:00:00 (CEST)Elpersbüttel, Germany (10130): visibility: 24.09.2020 23:00:00 - 30.09.2020 23:00:00 (CEST)Elpersbüttel, Germany (10130): sunshine duration: 24.09.2020 23:00:00 - 30.09.2020 23:00:00 (CEST)Elpersbüttel, Germany (10130): precipitation: 24.09.2020 23:00:00 - 30.09.2020 23:00:00 (CEST)
Date & Time tt [°C] td [°C] tt 5cm [°C] tt -5cm [°C] tt -20cm [°C] tt -100cm [°C] ff [km/h] ff [kn] fx [km/h] fx [kn] dd ppp [hPa] vv [km] sd [min] rr [mm]
30.09.2020 23:00:00 13,7 12,7 12,0 12,9 15,6 14,9 6 3 14 8 SE 1012,5 22 0 0,0
30.09.2020 22:00:00 13,3 12,6 11,4 13,5 15,9 14,9 4 2 12 7 E 1012,8 10 0 0,0
30.09.2020 21:00:00 13,2 12,4 11,8 14,1 16,2 14,9 4 2 10 6 E 1013,2 4,7 0 0,0
30.09.2020 20:00:00 14,1 12,7 12,0 14,9 16,4 14,9 4 2 9 5 E 1013,2 7 0 0,0
30.09.2020 19:00:00 15,8 13,4 13,2 16,4 16,5 14,9 2 1 11 6 ESE 1013,3 10 24 0,0
30.09.2020 18:00:00 17,4 14,0 16,2 18,0 16,4 14,9 5 3 18 10 SE 1013,4 12 22 0,0
30.09.2020 17:00:00 19,0 14,0 21,2 19,7 16,1 14,9 6 4 17 9 ESE 1013,5 16 57 0,0
30.09.2020 16:00:00 18,4 13,4 20,5 19,4 15,6 14,9 9 5 17 9 S 1013,8 18 52 0,0
30.09.2020 15:00:00 17,6 13,6 19,0 18,6 15,2 14,9 13 7 24 13 S 1014,3 16 44 0,0
30.09.2020 14:00:00 17,0 13,5 18,9 17,6 14,8 14,9 16 9 27 15 S 1014,9 14 27 0,0
30.09.2020 13:00:00 16,3 13,6 17,5 16,8 14,5 14,9 19 10 25 14 S 1015,1 16 20 0,0
30.09.2020 12:00:00 16,0 13,7 16,8 15,5 14,2 14,9 13 7 21 12 S 1015,1 16 2 0,0
30.09.2020 11:00:00 14,2 13,5 14,7 14,0 14,1 14,9 10 5 21 11 SSE 1015,6 12 0 0,0
30.09.2020 10:00:00 13,3 13,2 13,5 13,2 14,0 14,9 11 6 20 11 SSE 1015,7 5 0 0,0
30.09.2020 09:00:00 12,5 12,5 12,9 12,7 14,0 14,9 8 4 17 9 SE 1015,7 1,4 0 0,0
30.09.2020 08:00:00 11,8 11,8 11,9 12,3 14,1 14,9 7 4 16 9 SSE 1015,6 0,3 0 0,0
30.09.2020 07:00:00 11,8 11,8 11,8 12,4 14,2 14,9 8 5 14 8 SSE 1015,6 0,2 0 0,0
30.09.2020 06:00:00 12,1 12,1 12,1 12,5 14,2 14,9 9 5 17 9 S 1015,6 0,2 0 0,0
30.09.2020 05:00:00 12,3 12,2 12,2 12,7 14,3 14,9 14 7 18 10 S 1015,7 0,6 0 0,0
30.09.2020 04:00:00 12,8 12,7 12,6 12,8 14,4 14,9 11 6 19 10 S 1016,0 2,3 0 0,0
30.09.2020 03:00:00 13,2 13,0 12,9 12,8 14,4 14,9 12 6 17 9 S 1016,2 3,4 0 0,0
30.09.2020 02:00:00 12,9 12,7 12,2 12,9 14,5 14,9 11 6 18 10 SSW 1016,0 3,0 0 0,0
30.09.2020 01:00:00 13,7 13,4 13,3 13,1 14,6 14,9 14 8 21 11 SSW 1016,1 5 0 0,0
30.09.2020 00:00:00 13,5 13,3 13,2 13,1 14,7 14,9 11 6 19 11 S 1016,2 5 0 0,0
29.09.2020 23:00:00 13,2 13,0 12,9 13,2 14,8 14,9 13 7 18 10 S 1016,2 6 0 0,0
29.09.2020 22:00:00 12,9 12,7 12,7 13,3 14,9 14,9 11 6 18 10 SSE 1016,2 2,7 0 0,0
29.09.2020 21:00:00 12,8 12,2 12,5 13,5 15,0 14,9 14 7 25 14 S 1016,1 3,0 0 0,0
29.09.2020 20:00:00 13,8 11,2 13,3 14,0 15,2 14,9 10 6 16 9 S 1015,7 32 0 0,0
29.09.2020 19:00:00 14,5 11,1 13,9 14,6 15,2 14,9 12 7 17 9 S 1015,5 39 0 0,0
29.09.2020 18:00:00 15,4 12,1 15,1 15,3 15,2 14,9 8 5 14 8 S 1015,1 42 0 0,0
29.09.2020 17:00:00 15,7 11,5 15,6 15,6 15,1 15,0 10 6 19 10 S 1015,1 44 0 0,0
29.09.2020 16:00:00 15,8 11,2 16,1 16,2 14,9 15,0 10 6 25 14 S 1015,0 42 0 0,0
29.09.2020 15:00:00 15,5 10,7 16,1 17,1 14,4 15,0 15 8 26 14 S 1015,0 58 20 0,0
29.09.2020 14:00:00 15,8 10,5 18,9 17,5 13,9 15,0 15 8 24 13 S 1015,3 57 51 0,0
29.09.2020 13:00:00 14,6 10,0 16,0 15,3 13,6 15,0 12 7 20 11 SSE 1015,5 54 24 0,0
29.09.2020 12:00:00 13,5 10,8 14,3 13,6 13,4 15,0 8 4 16 9 SSE 1015,5 37 0 0,0
29.09.2020 11:00:00 12,9 11,0 12,9 12,8 13,3 15,0 9 5 16 9 SSE 1015,2 28 0 0,0
29.09.2020 10:00:00 12,4 11,3 12,1 12,1 13,3 15,0 6 3 11 6 SSE 1014,9 12 0 0,0
29.09.2020 09:00:00 12,0 11,0 11,5 11,6 13,3 15,0 6 3 15 8 SE 1014,5 8 0 0,0
29.09.2020 08:00:00 11,8 10,7 11,1 11,4 13,4 15,0 6 3 13 7 SE 1014,1 9 0 0,0
29.09.2020 07:00:00 11,8 10,8 11,0 11,5 13,4 15,0 6 4 12 6 SE 1013,5 8 0 0,0
29.09.2020 06:00:00 12,2 10,8 11,1 11,5 13,5 15,0 8 4 14 8 S 1013,4 11 0 0,0
29.09.2020 05:00:00 12,1 11,0 11,2 11,6 13,6 15,0 8 4 14 8 SSE 1013,2 8 0 0,0
29.09.2020 04:00:00 12,4 11,3 11,4 11,7 13,6 15,0 9 5 16 9 SSE 1013,1 8 0 0,0
29.09.2020 03:00:00 12,3 11,4 11,5 11,8 13,7 15,0 7 4 15 8 SSE 1013,1 5 0 0,0
29.09.2020 02:00:00 12,4 11,6 11,6 11,8 13,8 15,0 9 5 15 8 SSE 1012,9 5 0 0,0
29.09.2020 01:00:00 12,4 11,7 11,6 11,9 13,8 15,0 9 5 15 8 SSE 1012,7 5 0 0,0
29.09.2020 00:00:00 12,3 11,7 11,7 12,0 13,9 15,0 8 5 13 7 SSE 1012,8 5 0 0,0
28.09.2020 23:00:00 12,2 11,8 11,7 12,2 14,0 15,0 6 4 13 7 SSE 1012,6 4,9 0 0,0
28.09.2020 22:00:00 12,0 11,8 11,7 12,2 14,1 15,0 7 4 15 8 SSE 1012,4 2,1 0 0,2
28.09.2020 21:00:00 12,1 11,8 11,8 12,4 14,1 15,0 9 5 14 8 SSE 1012,1 2,8 0 0,4
28.09.2020 20:00:00 12,1 11,7 11,8 12,5 14,2 15,1 8 4 15 8 S 1011,5 2,1 0 0,5
28.09.2020 19:00:00 12,1 11,6 11,8 12,8 14,3 15,1 11 6 19 10 S 1010,9 4,5 0 0,1
28.09.2020 18:00:00 12,4 11,8 12,2 13,1 14,3 15,1 8 4 16 8 SSE 1010,3 3,9 0 0,0
28.09.2020 17:00:00 12,9 11,6 12,4 13,4 14,3 15,1 6 4 13 7 SSE 1009,9 13 0 0,0
28.09.2020 16:00:00 12,9 11,5 12,5 13,7 14,3 15,1 8 5 18 10 S 1009,7 17 0 0,0
28.09.2020 15:00:00 12,9 11,6 12,9 14,0 14,2 15,1 12 6 22 12 S 1009,3 16 0 0,0
28.09.2020 14:00:00 12,7 11,7 13,0 13,9 14,0 15,1 13 7 21 11 S 1009,2 9 0 0,0
28.09.2020 13:00:00 12,5 11,8 12,9 13,7 13,9 15,1 13 7 24 13 SSE 1009,1 6 0 0,0
28.09.2020 12:00:00 12,2 11,9 12,6 13,0 13,9 15,1 14 8 23 12 S 1008,9 6 0 0,0
28.09.2020 11:00:00 12,0 11,9 12,2 12,7 13,9 15,1 10 5 18 10 SSE 1008,8 2,3 0 0,1
28.09.2020 10:00:00 11,9 11,7 11,9 12,3 13,9 15,1 9 5 15 8 S 1008,4 3,0 0 0,1
28.09.2020 09:00:00 12,1 12,1 12,0 12,4 13,9 15,1 6 3 11 6 S 1007,8 1,6 0 0,0
28.09.2020 08:00:00 12,1 12,0 12,1 12,3 14,0 15,1 8 4 11 6 S 1007,2 2,4 0 0,1
28.09.2020 07:00:00 12,1 12,0 12,0 12,4 14,0 15,1 8 4 11 6 S 1006,7 2,5 0 0,1
28.09.2020 06:00:00 12,3 12,2 12,2 12,5 14,0 15,1 7 4 11 6 SSW 1006,9 2,2 0 0,3
28.09.2020 05:00:00 12,5 12,5 12,4 12,6 14,1 15,1 9 5 13 7 S 1006,8 1,8 0 0,1
28.09.2020 04:00:00 12,6 12,5 12,5 12,7 14,1 15,1 11 6 15 8 S 1006,8 2,2 0 0,2
28.09.2020 03:00:00 13,0 13,0 12,8 12,9 14,1 15,1 7 4 12 7 S 1006,8 1,7 0 0,0
28.09.2020 02:00:00 13,3 13,2 13,1 13,0 14,1 15,1 5 3 11 6 S 1006,6 1,9 0 0,1
28.09.2020 01:00:00 13,9 13,8 13,7 13,0 14,1 15,2 3 1 6 4 SE 1006,3 4,4 0 0,0
28.09.2020 00:00:00 14,1 13,9 13,8 12,9 14,1 15,2 3 2 7 4 SE 1006,4 5 0 0,0
27.09.2020 23:00:00 14,0 13,9 13,6 12,7 14,1 15,2 6 3 17 9 WSW 1006,2 6 0 0,1
27.09.2020 22:00:00 13,3 13,2 12,9 12,6 14,2 15,2 9 5 18 10 WSW 1006,3 6 0 0,2
27.09.2020 21:00:00 12,8 12,4 12,4 12,5 14,2 15,2 13 7 22 12 SW 1006,2 11 0 0,0
27.09.2020 20:00:00 12,6 12,3 12,3 12,6 14,3 15,2 12 7 23 12 WSW 1006,1 11 0 0,0
27.09.2020 19:00:00 12,4 12,1 12,1 12,8 14,4 15,2 13 7 18 10 SW 1005,7 15 0 0,3
27.09.2020 18:00:00 12,3 11,9 12,1 13,2 14,4 15,2 12 6 16 8 SW 1005,1 4,2 0 0,1
27.09.2020 17:00:00 12,3 12,0 12,4 13,6 14,4 15,2 10 5 13 7 SW 1004,8 12 0 0,3
27.09.2020 16:00:00 12,5 11,6 12,9 14,1 14,3 15,2 3 2 8 5 W 1004,9 3,5 0 0,1
27.09.2020 15:00:00 13,0 10,9 13,2 14,2 14,2 15,2 7 4 10 6 NNW 1004,6 52 0 0,0
27.09.2020 14:00:00 13,0 10,9 13,8 14,4 14,1 15,2 8 4 12 6 NW 1004,3 45 0 0,0
27.09.2020 13:00:00 12,7 10,6 13,9 13,9 13,9 15,2 5 3 9 5 WNW 1004,1 42 0 0,0
27.09.2020 12:00:00 12,4 10,7 12,5 13,0 13,9 15,2 2 1 8 4 ESE 1004,4 31 0 0,0
27.09.2020 11:00:00 11,9 10,4 11,6 12,7 13,9 15,2 3 2 10 6 SSE 1003,6 24 0 1,2
27.09.2020 10:00:00 12,2 10,1 11,9 12,5 13,9 15,2 6 3 11 6 E 1003,1 57 0 0,0
27.09.2020 09:00:00 11,8 10,3 11,5 11,8 14,0 15,3 5 3 14 7 ENE 1002,5 45 0 0,0
27.09.2020 08:00:00 11,2 9,8 10,4 11,7 14,1 15,3 8 5 17 9 E 1001,5 68 0 0,0
27.09.2020 07:00:00 12,4 10,0 11,3 12,3 14,2 15,3 10 5 24 13 E 1000,7 75 0 0,0
27.09.2020 06:00:00 13,3 11,5 12,4 12,5 14,2 15,3 9 5 21 12 ENE 1000,0 58 0 0,0
27.09.2020 05:00:00 13,5 11,3 12,4 12,6 14,3 15,3 18 10 33 18 NE 999,2 61 0 0,0
27.09.2020 04:00:00 14,2 11,9 12,8 13,1 14,3 15,3 16 8 38 21 E 998,0 61 0 0,0
27.09.2020 03:00:00 16,6 15,3 15,6 13,7 14,2 15,3 21 12 38 21 ENE 996,8 17 0 0,0
27.09.2020 02:00:00 16,7 15,5 15,7 13,7 14,1 15,3 23 12 42 23 NE 995,8 18 0 0,0
27.09.2020 01:00:00 16,1 15,0 15,2 13,4 14,1 15,3 29 16 49 26 NNE 995,0 20 0 0,0
27.09.2020 00:00:00 15,2 14,4 14,4 12,8 14,1 15,3 29 16 44 24 NNE 994,7 31 0 0,3
26.09.2020 23:00:00 13,5 12,9 12,9 12,4 14,2 15,4 26 14 52 28 NNE 994,4 4,6 0 0,5
26.09.2020 22:00:00 12,8 12,0 12,2 12,3 14,3 15,4 32 18 45 24 N 994,7 8 0 1,5
26.09.2020 21:00:00 12,4 11,5 11,8 12,6 14,4 15,4 28 15 38 21 N 995,5 11 0 1,6
26.09.2020 20:00:00 12,6 10,9 11,7 13,1 14,5 15,4 22 12 31 17 N 996,7 27 0 0,5
26.09.2020 19:00:00 13,6 10,8 13,1 13,8 14,5 15,4 19 10 29 16 N 997,2 73 0 0,0
26.09.2020 18:00:00 13,9 10,8 13,7 14,6 14,4 15,4 26 14 36 20 N 997,4 57 0 0,0
26.09.2020 17:00:00 14,8 11,6 15,1 15,4 14,2 15,4 19 10 29 16 NNW 997,6 63 0 0,0
26.09.2020 16:00:00 14,9 8,9 15,3 15,9 13,9 15,4 18 10 24 13 NNW 998,1 55 4 0,0
26.09.2020 15:00:00 15,2 9,5 19,0 15,9 13,5 15,4 16 8 21 11 NNW 998,5 57 6 0,0
26.09.2020 14:00:00 14,2 8,2 16,4 15,2 13,1 15,4 8 4 12 7 NW 998,8 52 0 0,0
26.09.2020 13:00:00 13,7 8,5 17,5 13,6 12,8 15,4 5 3 10 5 WNW 998,8 42 3 0,0
26.09.2020 12:00:00 12,6 9,0 13,0 12,4 12,5 15,4 0 0 4 2 N 998,9 46 0 0,0
26.09.2020 11:00:00 11,7 8,8 12,2 11,5 12,4 15,5 3 1 10 5 E 998,4 47 0 0,0
26.09.2020 10:00:00 10,8 8,0 10,8 10,3 12,3 15,5 6 3 10 5 S 997,9 39 20 0,0
26.09.2020 09:00:00 8,4 6,7 7,9 8,9 12,4 15,5 5 3 11 6 SSE 997,6 35 0 0,0
26.09.2020 08:00:00 6,0 5,3 5,3 8,0 12,5 15,5 7 4 12 6 ENE 997,3 16 0 0,0
26.09.2020 07:00:00 5,9 5,2 4,2 7,9 12,7 15,5 4 2 11 6 ESE 996,9 14 0 0,0
26.09.2020 06:00:00 6,1 5,3 3,7 8,2 12,9 15,5 5 3 12 6 ESE 996,9 15 0 0,0
26.09.2020 05:00:00 6,1 5,5 4,9 8,4 13,2 15,5 3 2 10 5 ESE 997,0 16 0 0,0
26.09.2020 04:00:00 6,4 5,4 3,7 8,7 13,4 15,5 4 2 11 6 ESE 996,6 18 0 0,0
26.09.2020 03:00:00 7,2 5,8 4,4 9,1 13,6 15,5 7 4 11 6 ESE 996,7 34 0 0,0
26.09.2020 02:00:00 7,0 5,6 5,6 9,0 13,9 15,5 6 4 13 7 E 996,5 22 0 0,0
26.09.2020 01:00:00 6,0 5,4 3,4 8,9 14,2 15,5 5 3 8 4 E 996,4 18 0 0,0
26.09.2020 00:00:00 6,6 5,6 3,0 9,3 14,6 15,5 4 2 8 5 SE 996,4 30 0 0,0
25.09.2020 23:00:00 6,4 5,4 2,7 10,0 15,0 15,5 4 2 8 5 S 996,7 24 0 0,0
25.09.2020 22:00:00 7,7 5,8 2,9 10,9 15,3 15,5 7 4 10 5 S 996,8 51 0 0,0
25.09.2020 21:00:00 8,9 6,2 5,0 12,0 15,7 15,5 5 3 9 5 SE 996,7 43 0 0,0
25.09.2020 20:00:00 11,1 6,7 5,8 13,5 15,9 15,5 7 4 16 9 SW 996,4 27 0 0,0
25.09.2020 19:00:00 12,2 7,2 10,9 15,4 15,9 15,5 8 5 17 9 SW 996,5 52 26 0,0
25.09.2020 18:00:00 13,8 6,5 13,4 17,0 15,8 15,5 16 9 27 14 SW 996,2 65 49 0,0
25.09.2020 17:00:00 15,2 6,1 16,2 18,0 15,5 15,5 20 11 31 17 SSW 996,0 72 56 0,0
25.09.2020 16:00:00 15,6 6,9 18,0 17,9 15,1 15,5 16 9 28 15 SW 995,7 62 31 0,0
25.09.2020 15:00:00 14,7 7,6 16,0 18,0 14,7 15,5 19 10 32 17 SW 996,1 69 50 0,0
25.09.2020 14:00:00 14,7 8,8 17,0 16,4 14,4 15,5 16 9 29 16 SSW 996,1 65 34 0,0
25.09.2020 13:00:00 13,6 8,6 14,5 14,3 14,2 15,5 19 11 27 15 SSW 996,1 64 9 0,0
25.09.2020 12:00:00 13,4 10,5 13,7 12,9 14,1 15,5 14 7 22 12 SSW 996,0 49 0 0,0
25.09.2020 11:00:00 12,7 11,3 12,5 12,3 14,1 15,5 12 7 23 13 S 996,0 37 0 0,0
25.09.2020 10:00:00 12,6 11,3 12,1 12,3 14,1 15,5 16 9 21 11 S 995,8 41 0 0,0
25.09.2020 09:00:00 12,5 11,1 11,8 11,7 14,1 15,5 11 6 32 18 S 995,2 45 0 0,1
25.09.2020 08:00:00 13,5 10,2 12,8 11,3 14,2 15,5 22 12 36 20 S 995,0 59 0 0,0
25.09.2020 07:00:00 12,1 8,9 10,5 11,1 14,3 15,5 8 4 16 9 SE 994,4 70 0 0,0
25.09.2020 06:00:00 11,7 8,3 10,3 11,2 14,5 15,5 3 2 12 7 SSE 994,9 71 0 0,0
25.09.2020 05:00:00 10,8 7,9 9,9 11,0 14,7 15,5 9 5 19 10 E 995,5 53 0 0,0
25.09.2020 04:00:00 10,5 7,7 8,9 10,9 14,9 15,5 6 3 16 9 ESE 996,3 49 0 0,0
25.09.2020 03:00:00 10,0 7,5 8,6 11,0 15,1 15,5 8 4 14 8 E 997,5 49 0 0,0
25.09.2020 02:00:00 10,0 7,4 8,5 11,2 15,4 15,5 5 3 15 8 E 998,4 52 0 0,0
25.09.2020 01:00:00 10,1 7,5 8,5 11,6 15,7 15,5 9 5 17 9 E 999,1 42 0 0,0
25.09.2020 00:00:00 10,3 7,5 8,6 12,0 16,0 15,5 6 3 14 7 E 999,8 48 0 0,0
24.09.2020 23:00:00 11,2 8,0 9,6 12,5 16,4 15,5 6 3 16 8 ESE 1000,3 48 0 0,0

tt = temperature
td = dewpoint
tt 5cm = temperature 5cm
tt -5cm = temperature -5cm
tt -20cm = temperature -20cm
tt -100cm = temperature -100cm
ff = wind speed
fx = gusts
dd = wind direction
ppp = reduced air pressure
vv = visibility
sd = sunshine duration
rr = precipitation

Next stations